Weather History for Burlington, CO

Change the Weather History Date:

Friday, July 12, 2013

  Actual Average Record
Temperature  
Mean Temperature 85 °F 75 °F  
Max Temperature 102 °F 89 °F 106 °F (1954)
Min Temperature 68 °F 60 °F 48 °F (1922)
Cooling Degree Days 19    
Growing Degree Days 34 (Base 50)    
Moisture  
Dew Point 56 °F    
Average Humidity 44    
Maximum Humidity 73    
Minimum Humidity 19    
Precipitation  
Precipitation 0.00 in 0.11 in 1.47 in (1951)
Month to date precipitation 0.20 1.38  
Year to date precipitation 7.79 9.99  
Sea Level Pressure  
Sea Level Pressure 29.77 in    
Wind  
Wind Speed 16 mph (South)    
Max Wind Speed 24 mph    
Max Gust Speed 32 mph    
Visibility 10 miles    
Events      
T = Trace of Precipitation, MM = Missing Value Source: NWS Daily Summary

Daily Weather History Graph

Daily Weather History Graph

Search for Another Location

Airport:

Trip Planner

Search our weather history database for the weather conditions in past years. The results will help you decide how hot, cold, wet, or windy it might be!

Date:

Astronomy

Jul. 12, 2013 Rise Set
Actual Time 5:33 AM MDT 8:16 PM MDT
Civil Twilight 5:01 AM MDT 8:47 PM MDT
Nautical Twilight 4:22 AM MDT 9:26 PM MDT
Astronomical Twilight 3:37 AM MDT 10:11 PM MDT
Moon 9:50 AM MDT (7/12) 10:29 PM MDT (7/12)
Length of Visible Light 15h 45m
Length of Day
14h 42m
Waxing Crescent, 18% of the Moon is Illuminated
Jul 12
Waxing Crescent
Jul 15
First Quarter
Jul 22
Full
Jul 29
Last Quarter
Aug 6
New

Hourly Weather History & Observations

Time (MDT) Temp. Heat Index Dew Point Humidity Pressure Visibility Wind Dir Wind Speed Gust Speed Precip Events Conditions
12:53 AM 73.0 °F - 60.1 °F 64% 29.81 in 10.0 mi South 17.3 mph - N/A   Clear
1:53 AM 71.1 °F - 59.0 °F 66% 29.79 in 10.0 mi South 16.1 mph - N/A   Clear
2:53 AM 71.1 °F - 59.0 °F 66% 29.78 in 10.0 mi South 19.6 mph - N/A   Clear
3:53 AM 70.0 °F - 59.0 °F 68% 29.77 in 10.0 mi South 19.6 mph - N/A   Clear
4:53 AM 68.0 °F - 59.0 °F 73% 29.77 in 10.0 mi South 17.3 mph - N/A   Clear
5:53 AM 68.0 °F - 59.0 °F 73% 29.77 in 10.0 mi South 15.0 mph - N/A   Clear
6:53 AM 71.1 °F - 60.1 °F 68% 29.78 in 10.0 mi South 16.1 mph - N/A   Clear
7:53 AM 75.9 °F - 60.1 °F 58% 29.78 in 10.0 mi South 18.4 mph - N/A   Clear
8:53 AM 80.1 °F 80.9 °F 60.1 °F 50% 29.81 in 10.0 mi South 11.5 mph - N/A   Clear
9:53 AM 86.0 °F 85.7 °F 60.1 °F 41% 29.78 in 10.0 mi South 12.7 mph 18.4 mph N/A   Clear
10:53 AM 88.0 °F 87.1 °F 59.0 °F 37% 29.78 in 10.0 mi South 8.1 mph - N/A   Clear
11:53 AM 91.9 °F 91.2 °F 59.0 °F 33% 29.78 in 10.0 mi SSE 9.2 mph 19.6 mph N/A   Clear
12:53 PM 95.0 °F 93.7 °F 57.0 °F 28% 29.76 in 10.0 mi South 11.5 mph 20.7 mph N/A   Clear
1:53 PM 98.1 °F 96.4 °F 55.9 °F 24% 29.73 in 10.0 mi South 9.2 mph 23.0 mph N/A   Clear
2:53 PM 100.0 °F 98.3 °F 55.0 °F 22% 29.71 in 10.0 mi SSE 19.6 mph 24.2 mph N/A   Clear
3:53 PM 100.9 °F - 52.0 °F 19% 29.71 in 10.0 mi SSE 19.6 mph - N/A   Clear
4:53 PM 100.0 °F - 51.1 °F 19% 29.70 in 10.0 mi SSE 24.2 mph 32.2 mph N/A   Clear
5:53 PM 97.0 °F - 48.9 °F 19% 29.70 in 10.0 mi SSE 19.6 mph 25.3 mph N/A   Clear
6:53 PM 93.9 °F - 50.0 °F 22% 29.71 in 10.0 mi SSE 17.3 mph - N/A   Partly Cloudy
7:53 PM 90.0 °F - 52.0 °F 27% 29.73 in 10.0 mi South 20.7 mph 28.8 mph N/A   Clear
8:53 PM 86.0 °F 84.2 °F 54.0 °F 33% 29.75 in 10.0 mi South 16.1 mph - N/A   Clear
9:53 PM 82.9 °F 81.9 °F 54.0 °F 37% 29.77 in 10.0 mi South 16.1 mph - N/A   Clear
10:45 PM 82.4 °F 81.4 °F 53.6 °F 37% 30.01 in 10.0 mi WSW 11.5 mph - N/A   Clear
10:53 PM 77.0 °F - 57.0 °F 50% 29.81 in 10.0 mi WNW 8.1 mph - N/A   Clear
11:53 PM 73.9 °F - 57.9 °F 57% 29.83 in 10.0 mi NW 9.2 mph - N/A   Clear